[[{"header":{"parameterUnit":"m.s-1","parameterCategory":1,"la1":30.2991,"la2":30.254,"lo1":-89.0895,"lo2":-89.0444,"dy":0.0017,"dx":0.0017,"nx":28,"ny":28,"refTime":"2024-12-19T09:00:00:Z","depth":0,"parameterNumber":2,"parameterNumberName":"U-component_of_WINDS"},"data":[0,0,0,0,0,0,0,0,0,0,0,0,0,0,0,0,0,0,0,0,0,0,0,0,0,0,0,0,0,0,0,0,0,0,0,0,0,0,0,0,0,0,0,0,0,0,0,0,0,0,0,0,0,0,0,0,0,0,2.1205,2.1205,0,2.1215,2.1215,2.1215,2.1191,2.119,2.1189,2.1188,2.1198,2.1199,2.1199,0,0,0,0,0,0,0,0,0,0,0,0,0,2.1165,2.1166,2.1205,2.1205,2.1205,2.1215,2.1215,2.1215,2.1191,2.119,2.1189,2.1188,2.1197,2.1198,2.12,0,0,0,0,0,0,0,0,0,0,0,0,0,2.1179,2.1166,2.1205,2.1194,2.1193,2.1215,2.1215,2.1215,2.1191,2.119,2.1189,2.1188,2.1197,2.1198,2.12,2.1232,0,0,2.1204,2.1205,0,0,0,0,0,0,0,0,2.1178,2.1181,2.1196,2.1195,2.1194,2.12,2.1204,2.122,2.1191,2.1192,2.1188,2.1187,2.1199,2.12,2.1205,2.1232,2.1232,2.1204,2.1205,2.1206,2.1206,0,0,0,0,0,0,0,2.1178,2.118,2.1209,2.1196,2.1195,2.1189,2.119,2.1207,2.1202,2.1192,2.119,2.1191,2.1199,2.1204,2.1205,2.1232,2.1204,2.1205,2.1206,2.1207,2.1287,2.1288,0,0,0,0,0,0,2.1178,2.118,2.1208,2.1209,2.1183,2.1191,2.1191,2.1199,2.1202,2.1201,2.1192,2.119,2.1202,2.1203,2.1205,2.1243,2.1206,2.1207,2.1208,2.1286,2.1287,2.1289,0,0,0,0,0,0,2.1177,2.1181,2.1208,2.1194,2.1197,2.1192,2.1202,2.12,2.1205,2.1202,2.1201,2.1198,2.1201,2.1203,2.1225,2.1243,2.1208,2.1209,2.1284,2.1286,2.1288,2.1318,0,0,0,0,0,0,2.1176,2.1181,2.1193,2.1194,2.1198,2.1228,2.1203,2.1201,2.1208,2.1205,2.1207,2.1207,2.12,2.1223,2.1227,2.1244,2.121,2.1283,2.1285,2.1287,2.1316,2.1321,2.1325,0,0,0,0,0,2.1175,2.12,2.1193,2.1197,2.1212,2.1229,2.1231,2.1223,2.1209,2.1221,2.122,2.1207,2.1241,2.1226,2.1229,2.1247,2.1281,2.1284,2.1287,2.1313,2.132,2.1325,0,0,0,0,0,0,2.12,2.12,2.1192,2.1219,2.1224,2.1225,2.124,2.123,2.1239,2.1236,2.1226,2.1226,2.1251,2.1251,2.1235,2.1279,2.1259,2.1262,2.1277,2.1283,2.1288,2.1287,2.1211,0,0,0,0,0,2.1209,2.1222,2.1222,2.1246,2.1249,2.1244,2.1251,2.1244,2.1249,2.1251,2.1251,2.1256,2.1268,2.1276,2.1286,2.1316,2.1316,2.133,2.1335,2.1339,2.1342,2.1358,2.1365,2.1298,2.1298,2.1298,0,0,2.1227,2.1229,2.1238,2.1251,2.1254,2.1268,2.1246,2.1262,2.1272,2.1253,2.1274,2.1275,2.128,2.1306,2.1317,2.1307,2.1361,2.1343,2.1346,2.1347,2.1362,2.1368,2.1374,2.13,2.13,2.1299,0,0,2.1267,2.127,2.129,2.1294,2.13,2.1297,2.1302,2.1304,2.1304,2.1325,2.1311,2.1324,2.1344,2.1348,2.1353,2.1397,2.1385,2.1401,2.1426,2.1442,2.1447,2.1451,2.1467,2.1473,2.1404,2.1404,2.1404,0,2.1288,2.131,2.1302,2.1319,2.1325,2.131,2.133,2.1334,2.1343,2.1348,2.1336,2.1362,2.1365,2.1392,2.1403,2.1407,2.1412,2.14,2.1447,2.1451,2.1455,2.147,2.1476,2.1406,2.1405,2.1405,2.1405,0,2.1336,2.1351,2.1367,2.1376,2.1384,2.1403,2.1398,2.1407,2.1401,2.1399,2.1421,2.1424,2.1435,2.1441,2.1434,2.1467,2.1461,2.1449,2.1428,2.1464,2.1477,2.1483,2.1408,2.1408,2.1407,2.1407,0,0,2.1391,2.1397,2.1403,2.1407,2.1413,2.1424,2.1443,2.1454,2.1462,2.1469,2.1484,2.1503,2.1491,2.1497,2.1491,2.1505,2.154,2.1491,2.1491,2.15,2.1577,2.1586,2.1592,2.1532,2.1534,2.1534,2.1576,0,2.1431,2.1462,2.1456,2.1487,2.1501,2.1488,2.1504,2.1509,2.1508,2.152,2.1519,2.1532,2.1517,2.152,2.1533,2.1533,2.1555,2.153,2.1546,2.1547,2.1545,2.1599,2.1609,2.1648,2.1581,2.1582,2.1583,0,2.1481,2.149,2.1523,2.1527,2.1533,2.1547,2.1558,2.1569,2.1575,2.1574,2.1581,2.1572,2.1591,2.1571,2.1597,2.158,2.1586,2.1587,2.1589,2.1589,2.1567,2.1601,2.166,2.1666,2.1591,2.1591,2.159,0,2.1517,2.1538,2.1561,2.1565,2.157,2.1581,2.1584,2.1589,2.1596,2.1606,2.1611,2.1622,2.1628,2.1637,2.1632,2.1618,2.1659,2.1638,2.1658,2.1658,2.1666,2.1665,2.1727,2.1671,2.1671,2.1671,2.1671,0,2.1562,2.1582,2.1577,2.1591,2.1614,2.1607,2.163,2.1631,2.1636,2.165,2.1639,2.1652,2.1645,2.1657,2.1654,2.1675,2.1678,2.1678,2.1676,2.1678,2.1678,2.1682,2.1679,2.1673,2.1672,2.1672,2.1672,0,2.1606,2.1604,2.1627,2.1631,2.1633,2.1649,2.1652,2.1665,2.1664,2.1682,2.1686,2.1684,2.1699,2.1695,2.171,2.1708,2.1736,2.1731,2.1734,2.1732,2.1752,2.175,2.1817,2.1826,2.1766,2.1766,2.1767,0,2.1634,2.165,2.1656,2.1665,2.1668,2.1682,2.169,2.1685,2.1694,2.1702,2.1714,2.1728,2.1739,2.1763,2.1763,2.1775,2.177,2.1793,2.1772,2.1774,2.177,2.1769,2.1771,2.1797,2.1797,2.1798,2.1799,0,2.1685,2.1683,2.1695,2.1707,2.1717,2.1726,2.1734,2.1742,2.1737,2.1748,2.1763,2.1771,2.1788,2.1802,2.1813,2.1816,2.1806,2.1805,2.1811,2.1812,2.1813,2.1813,2.1745,2.1804,2.1803,2.1803,2.1802,2.1802,2.1722,2.1735,2.1742,2.1756,2.1762,2.177,2.1782,2.1783,2.1796,2.1809,2.1805,2.1822,2.1829,2.1843,2.1848,2.1861,2.1852,2.186,2.1862,2.1864,2.1866,2.1812,2.1863,2.1863,2.1863,2.1863,2.1863,0,2.1771,2.1775,2.1788,2.18,2.1812,2.1803,2.1812,2.1822,2.1837,2.1844,2.1855,2.1873,2.1886,2.1888,2.1901,2.1912,2.1908,2.1915,2.1914,2.1915,2.1873,2.1867,2.1918,2.1918,2.1918,2.1918,2.1918,2.1918,2.1798,2.1821,2.182,2.1846,2.1849,2.1867,2.1872,2.188,2.1886,2.1906,2.1918,2.1919,2.1924,2.1937,2.195,2.195,2.1955,2.1964,2.1963,2.1923,2.1918,2.1912,2.1907,2.1965,2.1965,2.2003,2.2004,2.2004]},{"header":{"parameterUnit":"m.s-1","parameterCategory":1,"la1":30.2991,"la2":30.254,"lo1":-89.0895,"lo2":-89.0444,"dy":0.0017,"dx":0.0017,"nx":28,"ny":28,"refTime":"2024-12-19T09:00:00:Z","depth":0,"parameterNumber":3,"parameterNumberName":"V-component_of_WINDS"},"data":[0,0,0,0,0,0,0,0,0,0,0,0,0,0,0,0,0,0,0,0,0,0,0,0,0,0,0,0,0,0,0,0,0,0,0,0,0,0,0,0,0,0,0,0,0,0,0,0,0,0,0,0,0,0,0,0,0,0,-3.3489,-3.3491,0,-3.3654,-3.3656,-3.3657,-3.3632,-3.3629,-3.3626,-3.3624,-3.379,-3.3797,-3.3804,0,0,0,0,0,0,0,0,0,0,0,0,0,-3.3151,-3.3157,-3.3489,-3.3491,-3.3493,-3.3653,-3.3656,-3.3658,-3.3632,-3.3629,-3.3626,-3.3622,-3.3788,-3.3796,-3.3805,0,0,0,0,0,0,0,0,0,0,0,0,0,-3.3305,-3.3159,-3.3489,-3.35,-3.3502,-3.3653,-3.3656,-3.3659,-3.3633,-3.3629,-3.3625,-3.3621,-3.3785,-3.3795,-3.3806,-3.3955,0,0,-3.3838,-3.3843,0,0,0,0,0,0,0,0,-3.3296,-3.3317,-3.3496,-3.3499,-3.3503,-3.3618,-3.3598,-3.3758,-3.3634,-3.3583,-3.3624,-3.3619,-3.3736,-3.375,-3.3791,-3.3963,-3.397,-3.3839,-3.3845,-3.385,-3.3853,0,0,0,0,0,0,0,-3.3286,-3.331,-3.3554,-3.3499,-3.3503,-3.3496,-3.3513,-3.3628,-3.3681,-3.3588,-3.3586,-3.3606,-3.3737,-3.378,-3.3794,-3.3972,-3.3839,-3.3848,-3.3855,-3.3859,-3.4276,-3.428,0,0,0,0,0,0,-3.3272,-3.3301,-3.3549,-3.3559,-3.3387,-3.3506,-3.3525,-3.3585,-3.368,-3.369,-3.3609,-3.3604,-3.3764,-3.3782,-3.38,-3.3982,-3.385,-3.386,-3.3866,-3.4271,-3.4277,-3.4282,0,0,0,0,0,0,-3.3265,-3.3294,-3.3542,-3.343,-3.3461,-3.3516,-3.3584,-3.3591,-3.3634,-3.3697,-3.3706,-3.3644,-3.3762,-3.3785,-3.3917,-3.3987,-3.3865,-3.3874,-3.4266,-3.4273,-3.428,-3.4346,0,0,0,0,0,0,-3.3255,-3.3292,-3.335,-3.3431,-3.3467,-3.3657,-3.3588,-3.3597,-3.3652,-3.3647,-3.3731,-3.3741,-3.376,-3.3901,-3.3927,-3.3999,-3.3882,-3.426,-3.4269,-3.4277,-3.4338,-3.4354,-3.4368,0,0,0,0,0,-3.3243,-3.3361,-3.3353,-3.3383,-3.3541,-3.3661,-3.3682,-3.3702,-3.3658,-3.3717,-3.3757,-3.3739,-3.3975,-3.3915,-3.3944,-3.402,-3.4255,-3.4266,-3.4277,-3.4331,-3.4351,-3.4368,0,0,0,0,0,0,-3.3286,-3.3372,-3.3364,-3.3512,-3.358,-3.3657,-3.3731,-3.3723,-3.3804,-3.3795,-3.3816,-3.3835,-3.3969,-3.4007,-3.3939,-3.417,-3.4109,-3.4126,-3.414,-3.416,-3.4175,-3.4163,-3.3891,0,0,0,0,0,-3.3312,-3.3404,-3.3474,-3.3598,-3.3632,-3.3676,-3.3729,-3.3739,-3.381,-3.3838,-3.3888,-3.3957,-3.4046,-3.4105,-3.4191,-3.4343,-3.4361,-3.4409,-3.4425,-3.4437,-3.4452,-3.4535,-3.4558,-3.4317,-3.4317,-3.4317,0,0,-3.3368,-3.3427,-3.3483,-3.3608,-3.3661,-3.3755,-3.37,-3.3802,-3.3872,-3.3853,-3.3981,-3.402,-3.4098,-3.4241,-3.4306,-3.4277,-3.4522,-3.4451,-3.446,-3.4468,-3.4549,-3.4571,-3.4592,-3.4324,-3.4323,-3.4322,0,0,-3.3518,-3.3571,-3.3681,-3.3736,-3.3818,-3.3846,-3.3872,-3.3952,-3.3977,-3.4106,-3.4094,-3.4177,-3.4331,-3.4387,-3.4436,-3.4608,-3.4594,-3.4635,-3.4716,-3.4797,-3.4816,-3.4833,-3.4895,-3.4917,-3.4649,-3.4649,-3.4649,0,-3.3577,-3.3719,-3.3738,-3.3841,-3.3897,-3.3885,-3.3996,-3.4048,-3.4153,-3.4192,-3.4158,-3.4352,-3.4403,-3.4559,-3.4601,-3.4641,-3.4671,-3.4626,-3.4812,-3.4829,-3.4845,-3.4904,-3.4927,-3.4654,-3.4653,-3.4653,-3.4652,0,-3.3787,-3.3886,-3.3964,-3.4067,-3.4131,-3.4238,-3.4273,-3.4335,-3.4339,-3.4371,-3.4502,-3.4564,-3.4662,-3.47,-3.4704,-3.4857,-3.4836,-3.4807,-3.4746,-3.4872,-3.4928,-3.4951,-3.466,-3.4659,-3.4657,-3.4656,0,0,-3.3969,-3.4082,-3.411,-3.4157,-3.4247,-3.4323,-3.4429,-3.4526,-3.458,-3.4653,-3.4742,-3.4873,-3.4847,-3.4902,-3.4913,-3.4984,-3.5116,-3.4946,-3.4948,-3.4976,-3.5289,-3.5311,-3.5337,-3.5108,-3.5112,-3.5115,-3.5282,0,-3.4128,-3.4316,-3.4336,-3.4504,-3.4595,-3.4585,-3.4677,-3.4742,-3.4774,-3.4856,-3.4891,-3.4984,-3.4942,-3.4975,-3.5045,-3.5085,-3.5179,-3.5073,-3.5191,-3.5195,-3.5173,-3.5366,-3.5389,-3.5544,-3.5304,-3.5308,-3.5311,0,-3.4339,-3.4419,-3.4596,-3.4674,-3.4713,-3.4795,-3.4886,-3.4964,-3.5037,-3.5056,-3.5118,-3.512,-3.5228,-3.5163,-3.5313,-3.524,-3.5289,-3.5316,-3.5322,-3.5335,-3.5261,-3.5384,-3.5593,-3.5617,-3.5345,-3.5342,-3.534,0,-3.4455,-3.4607,-3.4732,-3.4773,-3.4866,-3.4925,-3.4966,-3.5035,-3.5092,-3.5171,-3.5209,-3.5299,-3.5349,-3.5418,-3.5444,-3.5394,-3.5593,-3.5529,-3.5611,-3.5611,-3.5654,-3.5651,-3.5876,-3.5685,-3.5684,-3.5684,-3.5683,0,-3.4631,-3.474,-3.4786,-3.4863,-3.4985,-3.5007,-3.5126,-3.5165,-3.5226,-3.5311,-3.5307,-3.5386,-3.5415,-3.5498,-3.5519,-3.564,-3.5662,-3.568,-3.5685,-3.5681,-3.5679,-3.5714,-3.5705,-3.569,-3.5689,-3.5687,-3.5686,0,-3.4781,-3.4816,-3.4953,-3.503,-3.5052,-3.5138,-3.5204,-3.5279,-3.531,-3.5417,-3.5443,-3.5492,-3.559,-3.5623,-3.5741,-3.5755,-3.5897,-3.5891,-3.5873,-3.5874,-3.5954,-3.5946,-3.6209,-3.6245,-3.603,-3.6032,-3.6033,0,-3.4892,-3.4975,-3.5062,-3.5118,-3.5162,-3.5253,-3.5312,-3.5337,-3.5398,-3.5487,-3.5551,-3.5649,-3.5729,-3.5886,-3.5932,-3.6023,-3.602,-3.6106,-3.6033,-3.6028,-3.6022,-3.6017,-3.6026,-3.6119,-3.6122,-3.6123,-3.6125,0,-3.5084,-3.5098,-3.5182,-3.5274,-3.5344,-3.5417,-3.5488,-3.5534,-3.5569,-3.5638,-3.5739,-3.5801,-3.5922,-3.6019,-3.6112,-3.6154,-3.6146,-3.6147,-3.6171,-3.6169,-3.6155,-3.6165,-3.5911,-3.6141,-3.614,-3.6138,-3.6138,-3.6137,-3.5219,-3.5293,-3.5365,-3.546,-3.5516,-3.5582,-3.5656,-3.5697,-3.5782,-3.5883,-3.5892,-3.6001,-3.6072,-3.6196,-3.6243,-3.6328,-3.6304,-3.6338,-3.6347,-3.6355,-3.6362,-3.6141,-3.6345,-3.6344,-3.6344,-3.6344,-3.6343,0,-3.5412,-3.5458,-3.5545,-3.5644,-3.5719,-3.5705,-3.5782,-3.5845,-3.5942,-3.6009,-3.6088,-3.6204,-3.6298,-3.6351,-3.6445,-3.6504,-3.6502,-3.6527,-3.6524,-3.6534,-3.6378,-3.6349,-3.6527,-3.6527,-3.6527,-3.6527,-3.6527,-3.6527,-3.5521,-3.5646,-3.5668,-3.582,-3.5866,-3.5973,-3.6019,-3.608,-3.6133,-3.6264,-3.6342,-3.6377,-3.6438,-3.6537,-3.6623,-3.6636,-3.6671,-3.6699,-3.671,-3.6563,-3.6545,-3.6527,-3.6499,-3.6706,-3.6706,-3.6858,-3.686,-3.6861]}]]